Regional Weather Roundup
Issued by NWS

Home | Current Version | Previous Version | Text Only | Print | Product List | Glossary Off
Versions: 1 2 3 4 5 6 7 8 9 10 11 12 13 14 15 16 17 18 19 20 21 22 23 24 25 26 27 28 29 30 31 32 33 34 35 36 37 38 39 40 41 42 43 44 45 46 47 48 49 50

000
ASUS43 KIND 231509
RWRIN

WEATHER ROUNDUP FOR INDIANA
NATIONAL WEATHER SERVICE INDIANAPOLIS IN
1100 AM EDT MON OCT 23 2017

NOTE: "FAIR" INDICATES FEW OR NO CLOUDS BELOW 12,000 FEET WITH NO
SIGNIFICANT WEATHER AND/OR OBSTRUCTIONS TO VISIBILITY.

* - STATION DOES NOT REPORT WEATHER SUCH AS PRECIPITATION OR FOG.

+ - STATION NOT QUALITY CONTROLLED BY THE NATIONAL WEATHER SERVICE.
    USE DATA WITH CAUTION...ESPECIALLY DEWPOINT AND RELATIVE
    HUMIDITY OBSERVATIONS.

INZ001>003-010>013-019-020-231600-
NORTHWEST INDIANA

CITY           SKY/WX    TMP DP  RH WIND       PRES   REMARKS
GARY /AIRPORT/ LGT RAIN  55  55 100 N18       29.83F
KNOX *+        CLOUDY    54  54 100 N12       29.76F
LA PORTE +     RAIN      54  53  96 N17       29.78F
MICHIGAN CITY+ LGT RAIN  54  54 100 N10G20    29.80F
MONTICELLO +   RAIN      57  55  95 N3        29.72F
RENSSELAER +   RAIN      55  52  88 N12G20    29.76F
VALPARAISO     LGT RAIN  56  54  93 N14G22    29.78F

$$

LMZ046-743>745-231600-
SOUTHERN LAKE MICHIGAN

STATION/POSITION TIME  TEMP    WIND        PRES    WAVE
                       AIR SEA DIR/SP/G            HT
                 (UTC) (F)     (DEG/KT/KT) (MB)    (FT)
BURNS HARBOR     1440   56      10/ 19/ 24 1009.8F
MICHIGAN CITY    1440   55      10/ 21/ 23   N/A
5NW MICH CITY    1500   56 57   20/ 17/ 23   N/A     7

$$

INZ004-005-014>016-021>024-231600-
NORTH CENTRAL INDIANA

CITY           SKY/WX    TMP DP  RH WIND       PRES   REMARKS
ELKHART        LGT RAIN  59  57  94 N3        29.77F
GOSHEN         LGT RAIN  61  56  83 CALM      29.74F
LOGANSPORT +   LGT RAIN  59  59 100 NE3       29.73F
PERU/GRISSOM   LGT RAIN  61  61 100 SE6       29.72F
SOUTH BEND     LGT RAIN  53  53 100 N13       29.78F
WARSAW +       LGT RAIN  59  59 100 SE3       29.75F

$$

INZ006>009-017-018-025>027-231600-
NORTHEAST INDIANA

CITY           SKY/WX    TMP DP  RH WIND       PRES   REMARKS
AUBURN +       DRIZZLE   61  55  82 E6        29.76F
FORT WAYNE     CLOUDY    62  56  80 SE9       29.76F
HUNTINGTON +   CLOUDY    62  58  86 SE8       29.75F
KENDALLVILLE + CLOUDY    60  56  87 SE8       29.77F

$$

INZ028-029-035-036-043>045-051>053-231600-
WEST CENTRAL INDIANA

CITY           SKY/WX    TMP DP  RH WIND       PRES   REMARKS
GREENCASTLE +  LGT RAIN  61  61 100 S6        29.73F
LAFAYETTE      RAIN      57  57 100 N14       29.72F FOG
TERRE HAUTE    LGT RAIN  59  57  93 W10       29.75R FOG

$$

INZ030>032-037>040-046>048-054>057-064-065-231600-
CENTRAL INDIANA

CITY           SKY/WX    TMP DP  RH WIND       PRES   REMARKS
ANDERSON       CLOUDY    63  57  82 SE6       29.76F
CP ATTERBURY + CLOUDY    63  59  88 S8G16     29.76F
COLUMBUS       LGT RAIN  63  59  88 S9        29.76F
FISHERS *+     CLOUDY    61  61 100 S12       29.72F
FRANKFORT +    RAIN      63  61  95 S5        29.73F
GREENWOOD *+   CLOUDY    65  64  95 S10G16    29.75F
INDIANAPOLIS   LGT RAIN  62  61  96 S16       29.73F
-EAGLE CREEK   LGT RAIN  62  60  93 S9        29.72F
KOKOMO +       LGT RAIN  61  59  93 SE7       29.73F
MARION +       CLOUDY    63  57  82 SE9       29.74F
MT COMFORT *+  CLOUDY    61  61 100 S10       29.73F
SHELBYVILLE    CLOUDY    64  60  87 S14       29.74F
ZIONSVILLE +   DRIZZLE   60  60 100 S7        29.73F

$$

INZ033-034-041-042-049-050-058-059-231600-
EAST CENTRAL INDIANA

CITY           SKY/WX    TMP DP  RH WIND       PRES   REMARKS
MUNCIE         CLOUDY    65  57  75 S10G22    29.75F
RICHMOND +     RAIN      59  59 100 S7        29.79F

$$

INZ060-061-067>069-081>083-085>088-231600-
SOUTHWEST INDIANA

CITY           SKY/WX    TMP DP  RH WIND       PRES   REMARKS
EVANSVILLE     CLOUDY    54  51  90 W10       29.80F
HUNTINGBURG +  CLOUDY    54  54 100 SW9       29.79S FOG
WASHINGTON +   CLOUDY    55  53  94 W7        29.76F

$$

INZ062-063-066-070>080-084-089>092-231600-
SOUTH CENTRAL AND SOUTHEAST INDIANA

CITY           SKY/WX    TMP DP  RH WIND       PRES   REMARKS
BEDFORD +      DRIZZLE   59  57  94 SW10G21   29.75F
BLOOMINGTON    CLOUDY    62  56  80 SW10G20   29.74F
MADISON *+     CLOUDY    63  61  94 CALM      29.81F
NORTH VERNON + CLOUDY    61  59  94 S7        29.77F
SEYMOUR +      CLOUDY    64  59  82 S7        29.75F

$$





USA.gov is the U.S. government's official web portal to all federal, state and local government web resources and services.